EW1869 Weather Reports


time (UTC)temp
F
wind
direction
speed
knots
gust
knots
rain 1hr
in
rain 24hr
in
rain mn
in
humidity
%
barometer
mb
20260508024005 60 323 0.0 0.0 0.00 0.00 0.00 62 1021.7
20260508023004 61 323 0.0 0.0 0.00 0.00 0.00 61 1021.7
20260508021005 62 340 0.0 0.9 0.00 0.00 0.00 64 1021.8
20260508020005 63 149 0.0 0.9 0.00 0.00 0.00 62 1021.8
20260508015005 63 277 0.0 1.7 0.00 0.00 0.00 57 1021.8
20260508014005 64 134 0.0 0.9 0.00 0.00 0.00 52 1021.8
20260508013006 64 22 0.0 3.5 0.00 0.00 0.00 53 1021.8
20260508012005 65 129 0.9 3.5 0.00 0.00 0.00 54 1021.7
20260508011005 65 70 0.0 0.9 0.00 0.00 0.00 52 1021.7
20260508005005 66 40 0.0 2.6 0.00 0.00 0.00 51 1021.8
20260508004005 67 44 0.0 3.5 0.00 0.00 0.00 50 1021.8
20260508003006 67 129 0.0 1.7 0.00 0.00 0.00 50 1021.8
20260508001005 69 53 0.9 2.6 0.00 0.00 0.00 46 1021.8
20260508000006 69 101 0.0 3.5 0.00 0.00 0.00 46 1021.8
20260507235004 69 235 0.9 2.6 0.00 0.00 0.00 42 1021.8
20260507234004 69 48 2.6 3.5 0.00 0.00 0.00 44 1021.8
20260507233005 69 66 0.9 3.5 0.00 0.00 0.00 43 1021.9
20260507232011 69 71 0.0 1.7 0.00 0.00 0.00 43 1021.9
20260507231005 69 12 0.0 2.6 0.00 0.00 0.00 46 1022.0
20260507230007 69 70 0.9 2.6 0.00 0.00 0.00 43 1022.1
20260507225004 69 258 0.0 3.5 0.00 0.00 0.00 44 1022.2
20260507224005 69 280 0.0 2.6 0.00 0.00 0.00 39 1022.2
20260507223004 69 94 0.0 2.6 0.00 0.00 0.00 42 1022.3
20260507222005 69 124 0.0 2.6 0.00 0.00 0.00 42 1022.5
20260507221005 69 18 0.0 2.6 0.00 0.00 0.00 43 1022.6
20260507220008 69 169 0.9 1.7 0.00 0.00 0.00 43 1022.7
20260507215004 70 98 0.9 2.6 0.00 0.00 0.00 43 1022.7
20260507214006 70 160 0.0 1.7 0.00 0.00 0.00 51 1022.8
20260507213007 70 309 0.0 2.6 0.00 0.00 0.00 45 1022.7
20260507212005 70 253 0.9 4.3 0.00 0.00 0.00 46 1022.8
20260507211004 70 244 0.0 3.5 0.00 0.00 0.00 49 1023.0
20260507205005 70 96 0.9 3.5 0.00 0.00 0.00 49 1023.0
20260507204001 71 23 1.7 4.3 0.00 0.00 0.00 49 1022.9
20260507202005 71 257 0.9 3.5 0.00 0.00 0.00 44 1023.0
20260507200005 70 74 0.0 5.2 0.00 0.00 0.00 48 1023.0
20260507195005 70 71 1.7 3.5 0.00 0.00 0.00 48 1023.0
20260507194004 72 47 0.9 2.6 0.00 0.00 0.00 52 1023.1
20260507192005 71 153 0.0 3.5 0.00 0.00 0.00 51 1023.2
20260507191005 71 238 0.9 1.7 0.00 0.00 0.00 53 1023.2
20260507190006 71 57 0.9 2.6 0.00 0.00 0.00 50 1023.2
20260507185005 70 269 0.9 3.5 0.00 0.00 0.00 52 1023.2
20260507183004 69 328 0.0 3.5 0.00 0.00 0.00 53 1023.4
20260507182004 69 46 0.9 2.6 0.00 0.00 0.00 45 1023.3
20260507181005 68 13 0.9 4.3 0.00 0.00 0.00 48 1023.3
20260507175005 67 116 0.9 1.7 0.00 0.00 0.00 50 1023.2
20260507174021 66 116 0.9 4.3 0.00 0.00 0.00 56 1023.2
20260507173006 65 139 0.0 2.6 0.00 0.00 0.00 60 1023.2
20260507172005 65 66 0.9 1.7 0.00 0.00 0.00 57 1023.0
20260507171005 64 316 0.0 0.9 0.00 0.00 0.00 56 1023.2
20260507170006 63 136 0.0 0.9 0.00 0.00 0.00 61 1023.2
20260507165005 63 214 0.0 1.7 0.00 0.00 0.00 61 1023.1
20260507164005 62 148 0.0 1.7 0.00 0.00 0.00 60 1023.2
20260507163004 62 125 0.0 0.9 0.00 0.00 0.00 62 1023.2
20260507162006 61 131 0.0 0.9 0.00 0.00 0.00 59 1023.1
20260507161006 60 158 0.0 0.9 0.00 0.00 0.00 63 1023.1
20260507155005 59 194 0.0 0.0 0.00 0.00 0.00 61 1023.0
20260507153004 58 217 0.0 0.0 0.00 0.00 0.00 60 1023.0
20260507151004 57 58 0.0 0.9 0.00 0.00 0.00 60 1022.9
20260507145005 57 222 0.0 0.9 0.00 0.00 0.00 61 1022.8
20260507144005 55 195 0.0 0.0 0.00 0.00 0.00 65 1022.8
20260507142005 55 195 0.0 0.0 0.00 0.00 0.00 71 1022.8
20260507141001 54 195 0.0 0.0 0.00 0.00 0.00 73 1022.7
20260507135005 52 195 0.0 0.0 0.00 0.00 0.00 73 1022.4
20260507134004 52 195 0.0 0.0 0.00 0.00 0.00 74 1022.3
20260507133001 51 195 0.0 0.9 0.00 0.00 0.00 77 1022.2
20260507131004 51 195 0.0 0.0 0.00 0.00 0.00 83 1022.1
20260507130005 51 195 0.0 0.0 0.00 0.00 0.00 80 1022.2
20260507125004 52 195 0.0 0.0 0.00 0.00 0.00 77 1022.1
20260507124005 52 195 0.0 0.0 0.00 0.00 0.00 74 1022.1
20260507123005 52 195 0.0 0.0 0.00 0.00 0.00 73 1022.0
20260507122005 52 195 0.0 0.9 0.00 0.00 0.00 73 1022.0
20260507115004 53 195 0.0 0.9 0.00 0.00 0.00 77 1022.0
20260507113008 53 195 0.0 0.9 0.00 0.00 0.00 80 1022.0
20260507112007 53 195 0.0 0.9 0.00 0.00 0.00 79 1022.0
20260507111005 53 195 0.0 0.0 0.00 0.00 0.00 81 1022.0
20260507110005 53 195 0.0 0.0 0.00 0.00 0.00 81 1022.0
20260507105004 53 195 0.0 0.9 0.00 0.00 0.00 80 1022.1
20260507104004 53 195 0.0 0.9 0.00 0.00 0.00 80 1022.1
20260507103005 53 195 0.0 0.0 0.00 0.00 0.00 82 1022.1
20260507102002 53 195 0.0 0.9 0.00 0.00 0.00 83 1022.2
20260507100006 53 195 0.0 0.0 0.00 0.00 0.00 83 1022.0
20260507095005 53 195 0.0 0.0 0.00 0.00 0.00 84 1022.2
20260507094005 53 195 0.0 0.0 0.00 0.00 0.00 83 1022.2
20260507093006 53 195 0.0 0.0 0.00 0.00 0.00 82 1022.3
20260507092004 54 195 0.0 0.0 0.00 0.00 0.00 81 1022.3
20260507090006 54 195 0.0 0.0 0.00 0.00 0.00 77 1022.4
20260507085004 54 195 0.0 0.0 0.00 0.00 0.00 77 1022.5
20260507083005 54 195 0.0 0.0 0.00 0.00 0.00 77 1022.5
20260507082005 54 195 0.0 0.0 0.00 0.00 0.00 78 1022.5
20260507080005 54 195 0.0 0.9 0.00 0.00 0.00 79 1022.5
20260507075000 53 194 0.0 0.9 0.00 0.00 0.00 80 1022.6
20260507073004 54 194 0.0 0.9 0.00 0.00 0.00 80 1022.7
20260507072004 54 194 0.0 0.9 0.00 0.00 0.00 81 1022.7
20260507071004 54 194 0.0 0.0 0.00 0.00 0.00 81 1022.7
20260507070010 54 194 0.0 0.0 0.00 0.00 0.00 81 1022.7
20260507065001 54 194 0.0 0.0 0.00 0.00 0.00 82 1022.7
20260507063959 54 194 0.0 0.0 0.00 0.00 0.00 83 1022.6
20260507063005 54 187 0.0 0.0 0.00 0.00 0.00 84 1022.7
20260507062004 54 187 0.0 0.0 0.00 0.00 0.00 84 1022.6
20260507060006 54 187 0.0 0.0 0.00 0.00 0.00 84 1022.6
20260507055005 54 187 0.0 0.9 0.00 0.00 0.00 86 1022.6
20260507054005 54 187 0.0 0.0 0.00 0.00 0.00 83 1022.6
20260507052005 53 187 0.0 0.0 0.00 0.00 0.00 82 1022.6
20260507051005 54 187 0.0 0.0 0.00 0.00 0.00 85 1022.7
20260507050006 54 188 0.0 0.9 0.00 0.00 0.00 84 1022.6
20260507044005 53 187 0.0 0.0 0.00 0.00 0.00 89 1022.5
20260507043005 53 187 0.0 0.0 0.00 0.00 0.00 92 1022.5
20260507042004 53 187 0.0 0.0 0.00 0.00 0.00 93 1022.4
20260507041004 53 187 0.0 0.9 0.00 0.00 0.00 93 1022.4
20260507040007 53 108 0.0 0.0 0.00 0.00 0.00 92 1022.3
20260507035005 53 108 0.0 0.0 0.00 0.00 0.00 92 1022.2
20260507034004 53 107 0.0 0.0 0.00 0.00 0.00 92 1022.1
20260507032005 54 108 0.0 0.0 0.00 0.00 0.00 91 1022.1
20260507031004 54 108 0.0 0.0 0.00 0.00 0.00 90 1022.0
20260507030006 55 107 0.0 0.0 0.00 0.00 0.00 90 1022.0